Regional Weather Roundup
Issued by NWS

Home | Current Version | Previous Version | Text Only | Print | Product List | Glossary Off
Versions: 1 2 3 4 5 6 7 8 9 10 11 12 13 14 15 16 17 18 19 20 21 22 23 24 25 26 27

000
ASUS45 KSLC 070510
RWRUT

UTAH REGIONAL WEATHER ROUNDUP
NATIONAL WEATHER SERVICE SALT LAKE CITY UT
1000 PM MST TUE DEC 06 2016

UTZ001>011-023>025-070600-

NORTHERN UTAH

CITY           SKY/WX    TMP DP  RH WIND       PRES   REMARKS
BRIGHAM CITY     N/A     26  13  58 N12       29.95R WCI  15
HILL AFB       CLEAR     19  10  67 E5        29.91R WCI  12
LOGAN          CLOUDY    22  17  81 SW5       29.93R WCI  16
OGDEN          CLEAR     19  13  77 CALM      29.92R
SALT LAKE CITY PTCLDY    25  16  68 S3        29.93R
TOOELE VALLEY  CLOUDY    27  18  69 W3        29.95R
WENDOVER       PTCLDY    25  10  54 NE8       29.96R WCI  16
HEBER CITY     PTCLDY    21   7  53 CALM      29.85R
WEST JORDAN    CLOUDY    26  19  75 CALM      29.93R

$$

UTZ011>015-024>027-070600-

CENTRAL/NORTHEAST UTAH

CITY           SKY/WX    TMP DP  RH WIND       PRES   REMARKS
PROVO AIRPORT  PTCLDY    26  16  65 W9        29.93R WCI  17
MOAB/CANYONLAN CLOUDY    34  17  50 NW5       29.83R WCI  30
DELTA          CLOUDY    27   9  46 CALM      29.93R
PRICE          CLOUDY    25  11  55 W7        29.82R WCI  17
RICHFIELD      CLOUDY    30  12  47 N7        29.93R WCI  23
ROOSEVELT      CLOUDY    27   7  43 NW7       29.85R WCI  19
VERNAL         CLOUDY    25   8  48 CALM      29.83R

$$

UTZ013>016-019>022-027-070600-

SOUTHERN UTAH

CITY           SKY/WX    TMP DP  RH WIND       PRES   REMARKS
BRYCE CANYON   NOT AVBL
CEDAR CITY     CLOUDY    22  11  62 SW6       29.90R WCI  14
MILFORD        MOCLDY    26  10  50 N15       29.91R WCI  14
ST GEORGE      PTCLDY    41  19  42 NE13      29.86R
HANKSVILLE     CLOUDY    32   7  34 CALM      29.88R
KANAB          CLEAR     34  18  51 W6        29.86R WCI  29
BLANDING       PTCLDY    32  15  49 W3        29.82R

$$

REGIONAL REPORTS     COLORADO/ARIZONA

CITY           SKY/WX    TMP DP  RH WIND       PRES   REMARKS
CRAIG, CO      LGT SNOW  18  14  84 W7        29.80S FOG     WCI   9
GRAND JUNCTION LGT SNOW  27  23  85 VRB3      29.87R FOG
RIFLE, CO      FLURRIES  26  17  68 W14       29.81R WCI  14
MONTROSE, CO   CLOUDY    26  15  63 NW23G29   29.79R WCI  11
CORTEZ, CO     CLOUDY    39  20  46 SW21G30   29.77R WCI  29
COLORADO CITY    N/A     32  23  69 CALM      29.86R
PAGE, AZ       CLEAR     44  14  29 S3        29.78R
GRAND CANYON   CLEAR     31  29  92 SW8       29.91R WCI  23
KINGMAN, AZ    CLEAR     47  21  35 S10       29.87R
FLAGSTAFF, AZ  CLEAR     31  27  85 SW16      29.92R WCI  20

$$

REGIONAL REPORTS    NEVADA/IDAHO/WYOMING

CITY           SKY/WX    TMP DP  RH WIND       PRES   REMARKS
LAS VEGAS, NV  PTCLDY    54  19  25 SW7       29.80R
ELY, NY        MOCLDY    12   6  77 W6        29.92R WCI   3
ELKO, NV       CLOUDY    22  17  81 S5        29.95R WCI  16
POCATELLO, ID  LGT SNOW  18  15  88 NW9       29.97R WCI   7
BURLEY, ID     FLURRIES  20  16  84 W8        29.99R WCI  10
FORT BRIDGER,    N/A      8   4  87 SW7       29.82R WCI  -4
EVANSTON, WY   CLOUDY     6   1  80 W10       29.79R WCI  -9
ROCK SPRINGS,  CLOUDY     8   5  87 SW6       29.80R FOG     WCI  -2

$$




USA.gov is the U.S. government's official web portal to all federal, state and local government web resources and services.